#timestamp,LO_Frequency,Hit,StdDev 
1678669215.3,286047005.0,N
1678669235.2,286047001.7,N
1678669255.0,286047000.4,N
1678669255.9,286047000.4,N
1678669275.7,286046998.5,N
1678669295.6,286046996.5,N
1678669315.4,286046997.0,N
1678669335.2,286046997.3,N
1678669355.1,286046997.5,N
1678669356.0,286046997.5,N
1678669375.8,286046996.7,N
1678669395.6,286046997.3,N
1678669415.5,286046998.8,N
1678669435.3,286046998.4,N
1678669455.1,286046998.7,N
1678669475.9,286046998.3,N
1678669495.7,286046999.2,N
1678669515.5,286047001.2,N
1678669535.4,286046998.3,N
1678669555.2,286046998.9,N
1678669575.0,286046998.2,N
1678669575.9,286046998.2,N
1678669595.8,286046998.9,N
1678669615.6,286046998.6,N
1678669635.4,286046998.3,N
1678669655.3,286047001.0,N
1678669675.1,286047001.2,N
1678669676.0,286047001.2,N
1678669695.8,286046998.8,N
1678669715.7,286046998.4,N
1678669735.5,286046999.0,N
1678669755.3,286046999.0,N
1678669775.2,286046998.1,N
1678669795.9,286047000.4,N
1678669815.7,286047000.1,N
1678669835.6,286046999.9,N
1678669855.4,286047000.0,N
1678669875.2,286047002.0,N
1678669895.0,286047000.4,N
1678669895.9,286047000.4,N
1678669915.8,286047000.8,N
1678669935.6,286047000.0,N
1678669955.4,286047002.8,N
1678669975.3,286047002.1,N
1678669995.1,286047002.6,N
1678670015.8,286047002.7,N
1678670035.7,286047002.3,N
1678670055.5,286047002.3,N
1678670075.3,286047000.1,N
1678670095.2,286047000.7,N
1678670115.0,286047000.8,N
1678670115.9,286047000.8,N
1678670135.7,286047000.9,N
1678670155.6,286046998.9,N
1678670175.4,286046999.2,N
1678670195.2,286046998.7,N
1678670215.1,286046998.8,N
1678670216.0,286046998.8,N
1678670235.8,286046998.5,N
1678670255.6,286047002.3,N
1678670275.5,286047001.2,N
1678670295.3,286047001.1,N
1678670315.1,286046998.1,N
1678670335.9,286047000.7,N
1678670355.7,286047000.5,N
1678670375.5,286047000.0,N
1678670395.4,286047000.9,N
1678670415.2,286047000.8,N
1678670435.0,286047000.0,N
1678670435.9,286047000.0,N
1678670455.8,286047000.9,N
1678670475.6,286047001.0,N
1678670495.4,286047000.6,N
1678670515.3,286047001.2,N
1678670535.1,286046998.2,N
1678670555.8,286047000.7,N
1678670575.7,286047000.3,N
1678670595.5,286047000.4,N
1678670615.3,286047000.5,N
1678670635.2,286047000.9,N
1678670655.0,286047001.2,N
1678670655.9,286047001.2,N
1678670675.7,286046998.2,N
1678670695.6,286046998.2,N
1678670715.4,286046998.6,N
1678670735.2,286047001.2,N
1678670755.1,286047000.7,N
1678670756.0,286047000.7,N
1678670775.8,286047000.7,N
1678670795.6,286046999.8,N
1678670815.5,286046999.8,N
1678670835.3,286047002.7,N
1678670855.1,286046999.7,N
1678670875.9,286047000.3,N
1678670895.7,286047001.9,N
1678670915.5,286047002.0,N
1678670935.4,286047001.7,N
1678670955.2,286047004.1,Y
1678670975.0,286047006.6,P
1678670975.9,286047006.6,N
1678670995.8,286047002.9,N
1678671015.6,286047002.3,N
1678671035.4,286046997.7,N
1678671055.3,286046998.4,N
1678671075.1,286047000.6,N
1678671095.8,286046998.1,N
1678671115.7,286047001.2,N
1678671135.5,286047002.5,N
1678671155.3,286047002.4,N
1678671175.2,286047001.6,N
1678671195.0,286047001.8,N
1678671195.9,286047001.8,N
1678671215.8,286047002.0,N
1678671235.6,286047003.8,N
1678671255.4,286047004.4,N
1678671275.2,286047004.0,N
1678671295.1,286047001.3,N
1678671296.0,286047001.3,N
1678671315.8,286047001.7,N
1678671335.7,286047001.3,N
1678671355.5,286047001.7,N
1678671375.3,286047004.4,N
1678671395.2,286047001.7,N
1678671415.9,286047001.4,N
1678671435.7,286047001.4,N
1678671455.6,286047003.9,N
1678671475.4,286047004.0,N
1678671495.2,286047001.4,N
1678671515.0,286047001.4,N
1678671516.0,286047001.4,N
1678671535.8,286047003.5,N
1678671555.6,286047003.8,N
1678671575.5,286047005.5,Y
1678671595.3,286047001.4,P
1678671615.1,286047001.9,P
1678671635.9,286047004.2,P
1678671655.7,286047003.8,Y
1678671675.5,286047000.2,P
1678671695.4,286047000.1,N
1678671715.2,286046999.8,N
1678671735.0,286047000.1,N
1678671735.9,286047000.1,N
1678671755.8,286047002.5,N
1678671775.6,286047001.5,N
1678671795.4,286047004.3,Y
1678671815.3,286047000.4,P
1678671835.1,286047000.4,N
1678671836.0,286047000.4,N
1678671855.8,286047000.6,Y
1678671875.7,286047000.8,P
1678671895.5,286047000.3,N
1678671915.3,286047002.4,P
1678671935.2,286047002.5,N
1678671955.9,286047000.1,N
1678671975.7,286047002.1,N
1678671995.6,286047001.5,N
1678672015.4,286047004.2,Y
1678672035.2,286047001.9,P
1678672055.1,286047004.2,P
1678672056.0,286047004.2,P
1678672075.8,286047004.1,Y
1678672095.6,286047000.2,P
1678672115.5,286047000.3,N
1678672135.3,286047000.8,N
1678672155.1,286047000.6,N
1678672175.9,286047000.9,N
1678672195.7,286047000.0,N
1678672215.5,286047000.4,N
1678672235.4,286047000.8,N
1678672255.2,286046998.1,N
1678672275.0,286047000.6,N
1678672275.9,286047000.6,N
1678672295.8,286046998.3,N
1678672315.6,286046998.6,N
1678672335.4,286047000.5,N
1678672355.3,286047002.4,N
1678672375.1,286046999.8,N
1678672376.0,286046999.8,N
1678672395.8,286046999.9,N
1678672415.7,286047000.9,N
1678672435.5,286046999.9,N
1678672455.3,286047001.3,N
1678672475.2,286047002.5,N
1678672495.9,286047002.2,N
1678672515.7,286047001.9,N
1678672535.6,286046999.8,N
1678672555.4,286047002.4,N
1678672575.2,286047002.2,N
1678672595.0,286047001.9,N
1678672596.0,286047001.9,N
1678672615.8,286047002.0,N
1678672635.6,286047001.3,N
1678672655.5,286047004.2,Y
1678672675.3,286047003.3,P
1678672695.1,286047003.4,N
1678672715.9,286047005.1,P
1678672735.7,286047005.5,Y
1678672755.5,286047002.4,P
1678672775.4,286047001.7,P
1678672795.2,286047002.0,P
